Home > Weather > Sidon > Past weeks

Flag for Lebanon Past Weather in Sidon, Lebanon — Yesterday and Last 2 Weeks

Now
72 °F

Scattered clouds.


Feels Like: 75 °F
Forecast: 75 / 79 °F
Wind: 13 mph from Southwest

Location: Beirut Airport

Current Time: May 27, 2016 at 9:15:19 PM

Latest Report: May 27, 2016 at 8:00 PM


Visibility: N/A

Pressure: 29.86 "Hg

Humidity: 69%

Dew Point: 61 °F

Location of SidonLocation

Past Weather in Sidon — Graph

°F

Sidon Temperature Yesterday

Maximum temperature yesterday: 88 °F (at 2:00 PM)
Minimum temperature yesterday: 70 °F (at 12:00 AM)
Average temperature yesterday: 75 °F

High & Low Weather Summary for the Past Weeks

 TemperatureHumidityPressure
High97 °F (May 16, 12:00 PM)88% (May 12, 11:00 PM)30.07 "Hg (May 12, 11:00 PM)
Low66 °F (May 13, 4:00 AM)20% (May 14, 5:00 PM)29.74 "Hg (May 26, 2:00 PM)
Average75 °F59%29.94 "Hg
* Reported May 12 8:00 PM — May 27 8:00 PM, Sidon, Weather by CustomWeather, © 2016

Note: Actual official high and low records may vary slightly from our data, if they occured in-between our weather recording intervals... More about our weather records

Advertising

Sidon Weather History for the Previous 24 Hours

Scroll right to see more
 ConditionsComfort  
Time TempWeatherWind HumidityBarometerVisibility
8:00 PM
Fri, May 27
72 °FScattered clouds.13 mph69%29.86 "HgN/A
7:00 PM73 °FScattered clouds.14 mph65%29.86 "HgN/A
6:00 PM73 °FScattered clouds.13 mph65%29.86 "HgN/A
5:00 PM75 °FScattered clouds.14 mph61%29.86 "HgN/A
4:00 PM75 °FScattered clouds.16 mph61%29.86 "HgN/A
3:00 PM75 °FScattered clouds.16 mph61%29.86 "Hg5 mi
1:00 PM75 °FScattered clouds.17 mph61%29.86 "Hg5 mi
12:00 PM75 °FPartly sunny.17 mph61%29.86 "Hg5 mi
11:00 AM75 °FPartly sunny.16 mph61%29.86 "Hg5 mi
10:00 AM73 °FPartly sunny.18 mph61%29.86 "Hg5 mi
9:00 AM73 °FPartly sunny.17 mph57%29.83 "Hg5 mi
8:00 AM73 °FPartly sunny.13 mph50%29.83 "Hg4 mi
7:00 AM70 °FPartly sunny.7 mph50%29.83 "Hg4 mi
6:00 AM70 °FPassing clouds.8 mph50%29.80 "Hg4 mi
5:00 AM68 °FPassing clouds.8 mph56%29.80 "Hg4 mi
4:00 AM68 °FPassing clouds.8 mph64%29.80 "Hg4 mi
3:00 AM70 °FPassing clouds.13 mph64%29.80 "Hg4 mi
2:00 AM70 °FPassing clouds.12 mph64%29.80 "Hg4 mi
1:00 AM70 °FPassing clouds.14 mph69%29.83 "Hg4 mi
12:00 AM70 °FPassing clouds.12 mph69%29.83 "Hg4 mi
11:00 PM
Thu, May 26
72 °FFog.9 mph69%29.83 "Hg3 mi
10:00 PM72 °FFog.12 mph73%29.83 "Hg3 mi
9:00 PM72 °FFog.12 mph78%29.80 "Hg3 mi
Weather by CustomWeather, © 2016

See weather overviewHow to use our weather pages